Dakar 2012 5ème étape

Dakar 2012 Argentine/Chili/Perou

Source : http://dakar.sport.francetv.fr

jeudi 5 janvier : Liaison : 246 km - Spécial : 177 km.

Classement de la 5ème étape Moto - Chilecito - Fiambalá

RangNuméroPilote/EquipageEquipeMarque - ModèleTempsRetard
1 002 DESPRES Cyril TEAM RED BULL KTM KTM - 450cc Rally 02:28:33
2 001 COMA Marc KTM MRW RALLY DAKAR EAM KTM - 450 cc 02:30:14 00:01:41
3 023 BARREDA BORT Joan HUSQVARNA RALLYE TEAM BY SPEEDBRAIN HUSQVARNA - Rally 450 RR 02:41:15 00:12:42
4 032 SVITKO Stefan HANT LOGOMOTION SLOVAKIA KTM - 450 RR 02:42:28 00:13:55
5 010 VILADOMS Jordi BORDONE-FERRARI KTM - Rally Replica 02:42:50 00:14:17
6 006 ULLEVALSETER Pal Anders TEAM ULLEVALSETER KTM - 450 R 02:43:14 00:14:41
7 008 FARIA Ruben TEAM RED BULL KTM KTM - 450 CC RALLY 02:43:24 00:14:51
8 020 FARRES GUELL Gerard BORDONE-FERRARI KTM - 450 RALLY REPLICA 02:47:22 00:18:49
9 004 LOPEZ Francisco GIOFIL APRILIA APRILIA - 450 RXV TUAREG 02:47:43 00:19:10
10 007 GONCALVES Paulo HUSQVARNA RALLYE TEAM BY SPEEDBRAIN Husqvarna - Rally 450 RR 02:48:04 00:19:31
11 016 PAIN Olivier TEAM YAMAHA RACING YAMAHA - 450 YZF Rally 02:48:27 00:19:54
12 025 GOUET Daniel TAMARUGAL HONDA RACING XC RALLY TEAM HONDA - CRF 450 X 02:48:38 00:20:05
13 005 PEDRERO GARCIA Juan KTM MRW RALLY DAKAR EAM KTM - 450cc Rally 02:49:18 00:20:45
14 003 RODRIGUES Helder TEAM YAMAHA RACING YAMAHA - WRF 450 02:49:41 00:21:08
15 028 ZANOL FELIPE KTM BRASIL KTM - 450 Replica 02:49:43 00:21:10
16 034 BOTTURI ALESSANDRO BORDONE-FERRARI KTM - 450 RALLY REPLICA 02:53:34 00:25:01
17 027 PIZZOLITO Javier HONDA RACING ARGENTINA HONDA - CRF 450X 02:55:18 00:26:45
18 017 CZACHOR Jacek ORLEN TEAM KTM - 450 Replica 02:56:29 00:27:56
19 026 RODRIGUES FILHO Jose helio HUSQVARNA RALLYE TEAM BY SPEEDBRAIN HUQSVARNA - RALLY 450 RR 02:56:53 00:28:20
20 014 CASTEU David TEAM YAMAHA RACING YAMAHA - 450 WRF Rally 02:56:54 00:28:21
21 012 PELLICER Jose Manuel HUSQVARNA RALLYE TEAM BY SPEEDBRAIN HUSQVARNA - Rally 450 RR 02:59:20 00:30:47
22 144 CURTIS Darryl MEMO TOURS - ALFIE COX TEAM KTM - 450 Replica 03:01:27 00:32:54
23 021 AUBERT JOHNNY KTM RALLY FACTORY TEAM KTM - 450 RALLY 03:02:03 00:33:30
24 033 BETHYS Thierry YAMAHA - 450 YZF Rally 03:03:35 00:35:02
25 048 LIEFHEBBER Hans-jos KTM - 450 RR 03:03:37 00:35:04
26 064 SCHRÖDER DANIEL MEMO TOURS - ALFIE COX TEAM KTM - 450cc 03:03:43 00:35:10
27 043 PISANO Michael MP CONCEPT KTM - 450 RR 03:05:07 00:36:34
28 018 KNUIMAN Henk WIM MOTORS DAKAR KTM - 450 REPLICA 03:05:20 00:36:47
29 183 RODRIGUEZ Pablo HONDA RACING ARGENTINA HONDA - CRF450X 03:06:42 00:38:09
30 082 GUINDANI Vincent HFP YAMAHA - YZR 450 03:06:54 00:38:21
31 022 DUCLOS Alain GIOFIL APRILIA APRILIA - RXV 4.5 Rally 03:09:43 00:41:10
32 040 SERRADORI Mathieu KTM - 450 Rally 03:10:22 00:41:49
33 039 GYENES Emanuel VECTRA RACING KTM - 450 RR 03:10:56 00:42:23
34 024 STANOVNIK Miran TEAM SUGAWARA KTM - 450 R 03:11:16 00:42:43
35 057 WILLEMSEN Daniel TEAM HONDA EUROPE HONDA - CRF 450 X 03:11:17 00:42:44
36 041 PROHENS Felipe TAMARUGAL HONDA RACING XC RALLY TEAM HONDA (Transformada) - CRF450X RALLY 03:14:35 00:46:02
37 035 CECI Paolo BORDONE-FERRARI KTM - 450 RR 03:19:00 00:50:27
38 145 NUTTALL Dean MEMO TOURS - ALFIE COX TEAM KTM - 450 Replica 03:21:03 00:52:30
39 066 LORMAND Etienne ROUSSILL'HOTEL - HFP YAMAHA - 450 WRF 03:21:37 00:53:04
40 049 DABROWSKI Marek ORLEN TEAM KTM - 450 RR 03:21:54 00:53:21
41 042 PROHENS Jaime TAMARUGAL HONDA RACING XC RALLY TEAM HONDA - CRF 450X RALLY 03:22:07 00:53:34
42 110 BIRCH Christopher MEMO TOURS - ALFIE COX TEAM KTM - 450 Replica 03:26:06 00:57:33
43 081 SUESSE NED ADVRIDER/ NEDURO KTM - 450XCW 03:26:24 00:57:51
44 071 BUTUZA Marcel BOANO HONDA - CRE F 450 X 03:31:16 01:02:43
45 050 SALVATIERRA Juan Carlos GHR HONDA HONDA - CRF450X 03:32:36 01:04:03
46 185 SANCHEZ MARCELO TEAM RPM KAWASAKI KAWASAKI - KLX 450 R 03:32:42 01:04:09
47 058 PUERTAS HERRERA Miguel HIMOINSA DAKAR TEAM YAMAHA - 450 WR 03:33:00 01:04:27
48 086 MUNK Jes X-RAGE RACING KTM - 450 03:36:28 01:07:55
49 075 BUSIN Pablo MOTO TEAM BY ELF YAMAHA - 450 WR 03:39:05 01:10:32
50 087 MEILLAT Christophe C.M PROMO KAWASAKI - KLX 450 R 03:41:25 01:12:52
51 172 LUCCHESE MANUEL HUSABERG FACTORY TEAM HUSABERG - FE 450 RALLY 03:42:45 01:14:12
52 069 PAYEN Hugo YAMAHA - 450 WRF 03:43:12 01:14:39
53 065 LAZARD Laurent MOTO TEAM BY ELF YAMAHA - WR 450 03:44:01 01:15:28
54 138 LECOQ SEBASTIEN TEAM PERFORMANCE ENDURO YAMAHA - 450 YZFE 03:44:41 01:16:08
55 089 NASCIMENTO DENISIO PETROBRAS LUBRAX HONDA - CRF 450 03:44:48 01:16:15
56 030 GUASCH Marc GAS GAS GAS - GAS - EC 450 03:46:21 01:17:48
57 184 SAKIR SENKALAYCI TURKISH TEAM KTM - 450 RALLY EXC 03:48:04 01:19:31
58 045 SANZ PLA-GILIBERT Eulalia GAS GAS GAS - GAS - EC 450 03:48:50 01:20:17
59 061 MATTOS Dimas BRASIL MOTO TOUR KTM - 450 RR 03:49:25 01:20:52
60 181 RIOS FELIPE KTM PERU RALLY TEAM KTM - Rally Replica 03:50:20 01:21:47

Classement général Moto

RangNuméroPilote/EquipageEquipeMarque - ModèleTempsRetard
1 002 DESPRES Cyril TEAM RED BULL KTM KTM - 450cc Rally 14:19:00
2 001 COMA Marc KTM MRW RALLY DAKAR EAM KTM - 450 cc 14:28:51 00:09:51
3 003 RODRIGUES Helder TEAM YAMAHA RACING YAMAHA - WRF 450 15:06:56 00:47:56
4 004 LOPEZ Francisco GIOFIL APRILIA APRILIA - 450 RXV TUAREG 15:08:00 00:49:00
5 007 GONCALVES Paulo HUSQVARNA RALLYE TEAM BY SPEEDBRAIN Husqvarna - Rally 450 RR 15:13:47 00:54:47
6 010 VILADOMS Jordi BORDONE-FERRARI KTM - Rally Replica 15:17:17 00:58:17
7 014 CASTEU David TEAM YAMAHA RACING YAMAHA - 450 WRF Rally 15:17:58 00:58:58
8 020 FARRES GUELL Gerard BORDONE-FERRARI KTM - 450 RALLY REPLICA 15:22:13 01:03:13
9 032 SVITKO Stefan HANT LOGOMOTION SLOVAKIA KTM - 450 RR 15:26:26 01:07:26
10 005 PEDRERO GARCIA Juan KTM MRW RALLY DAKAR EAM KTM - 450cc Rally 15:33:04 01:14:04
11 016 PAIN Olivier TEAM YAMAHA RACING YAMAHA - 450 YZF Rally 15:33:18 01:14:18
12 034 BOTTURI ALESSANDRO BORDONE-FERRARI KTM - 450 RALLY REPLICA 15:39:08 01:20:08
13 027 PIZZOLITO Javier HONDA RACING ARGENTINA HONDA - CRF 450X 15:41:41 01:22:41
14 006 ULLEVALSETER Pal Anders TEAM ULLEVALSETER KTM - 450 R 15:53:59 01:34:59
15 025 GOUET Daniel TAMARUGAL HONDA RACING XC RALLY TEAM HONDA - CRF 450 X 15:55:29 01:36:29
16 026 RODRIGUES FILHO Jose helio HUSQVARNA RALLYE TEAM BY SPEEDBRAIN HUQSVARNA - RALLY 450 RR 16:03:17 01:44:17
17 028 ZANOL FELIPE KTM BRASIL KTM - 450 Replica 16:07:38 01:48:38
18 022 DUCLOS Alain GIOFIL APRILIA APRILIA - RXV 4.5 Rally 16:12:15 01:53:15
19 008 FARIA Ruben TEAM RED BULL KTM KTM - 450 CC RALLY 16:12:54 01:53:54
20 017 CZACHOR Jacek ORLEN TEAM KTM - 450 Replica 16:14:32 01:55:32
21 021 AUBERT JOHNNY KTM RALLY FACTORY TEAM KTM - 450 RALLY 16:28:03 02:09:03
22 039 GYENES Emanuel VECTRA RACING KTM - 450 RR 16:30:53 02:11:53
23 024 STANOVNIK Miran TEAM SUGAWARA KTM - 450 R 16:31:17 02:12:17
24 082 GUINDANI Vincent HFP YAMAHA - YZR 450 16:32:23 02:13:23
25 018 KNUIMAN Henk WIM MOTORS DAKAR KTM - 450 REPLICA 16:35:59 02:16:59
26 035 CECI Paolo BORDONE-FERRARI KTM - 450 RR 16:37:29 02:18:29
27 043 PISANO Michael MP CONCEPT KTM - 450 RR 16:38:37 02:19:37
28 040 SERRADORI Mathieu KTM - 450 Rally 16:52:25 02:33:25
29 033 BETHYS Thierry YAMAHA - 450 YZF Rally 17:07:00 02:48:00
30 012 PELLICER Jose Manuel HUSQVARNA RALLYE TEAM BY SPEEDBRAIN HUSQVARNA - Rally 450 RR 17:19:56 03:00:56
31 015 VERHOEVEN Frans SHERCO RALLY RAID - CROCOAVENTURES SHERCO - SR 450 17:28:23 03:09:23
32 023 BARREDA BORT Joan HUSQVARNA RALLYE TEAM BY SPEEDBRAIN HUSQVARNA - Rally 450 RR 17:32:26 03:13:26
33 048 LIEFHEBBER Hans-jos KTM - 450 RR 17:34:59 03:15:59
34 064 SCHRÖDER DANIEL MEMO TOURS - ALFIE COX TEAM KTM - 450cc 17:35:44 03:16:44
35 049 DABROWSKI Marek ORLEN TEAM KTM - 450 RR 17:37:01 03:18:01
36 057 WILLEMSEN Daniel TEAM HONDA EUROPE HONDA - CRF 450 X 17:48:13 03:29:13
37 144 CURTIS Darryl MEMO TOURS - ALFIE COX TEAM KTM - 450 Replica 17:49:29 03:30:29
38 041 PROHENS Felipe TAMARUGAL HONDA RACING XC RALLY TEAM HONDA (Transformada) - CRF450X RALLY 17:55:49 03:36:49
39 089 NASCIMENTO DENISIO PETROBRAS LUBRAX HONDA - CRF 450 17:57:16 03:38:16
40 042 PROHENS Jaime TAMARUGAL HONDA RACING XC RALLY TEAM HONDA - CRF 450X RALLY 18:07:28 03:48:28
41 145 NUTTALL Dean MEMO TOURS - ALFIE COX TEAM KTM - 450 Replica 18:22:36 04:03:36
42 183 RODRIGUEZ Pablo HONDA RACING ARGENTINA HONDA - CRF450X 18:24:04 04:05:04
43 173 MALO WILSON WILSON MALO KTM DEL ECUADOR KTM - 450 RALLY 2010 18:26:40 04:07:40
44 066 LORMAND Etienne ROUSSILL'HOTEL - HFP YAMAHA - 450 WRF 18:33:36 04:14:36
45 081 SUESSE NED ADVRIDER/ NEDURO KTM - 450XCW 18:35:42 04:16:42
46 060 WATT Stanley FRONT ROW GB / CRECENT KTM KTM - 450 RR 18:42:57 04:23:57
47 110 BIRCH Christopher MEMO TOURS - ALFIE COX TEAM KTM - 450 Replica 18:55:11 04:36:11
48 053 RODRIGUEZ Claudio TAMARUGAL HONDA RACING XC RALLY TEAM HONDA - CRF 450 X 19:14:26 04:55:26
49 051 ARREDONDO Francisco TEAM GUATEMALA KTM - 450 RALLY 19:18:04 04:59:04
50 086 MUNK Jes X-RAGE RACING KTM - 450 19:24:40 05:05:40
51 138 LECOQ SEBASTIEN TEAM PERFORMANCE ENDURO YAMAHA - 450 YZFE 19:30:13 05:11:13
52 071 BUTUZA Marcel BOANO HONDA - CRE F 450 X 19:41:59 05:22:59
53 058 PUERTAS HERRERA Miguel HIMOINSA DAKAR TEAM YAMAHA - 450 WR 19:43:29 05:24:29
54 181 RIOS FELIPE KTM PERU RALLY TEAM KTM - Rally Replica 19:44:30 05:25:30
55 184 SAKIR SENKALAYCI TURKISH TEAM KTM - 450 RALLY EXC 19:46:15 05:27:15
56 154 GAJDOSECH ROBERTO ANTONIO ATUEL MOTOS YAMAHA - WR 450 19:48:09 05:29:09
57 045 SANZ PLA-GILIBERT Eulalia GAS GAS GAS - GAS - EC 450 19:48:23 05:29:23
58 062 SCHWARZ David HUSABERG RALLYE RACING AUSTRALIA HUSABERG - FE450 19:48:52 05:29:52
59 030 GUASCH Marc GAS GAS GAS - GAS - EC 450 19:49:09 05:30:09
60 067 BALOOSHI MOHAMMED RED BULL KTM - 450 RR 19:54:07 05:35:07
61 185 SANCHEZ MARCELO TEAM RPM KAWASAKI KAWASAKI - KLX 450 R 19:54:30 05:35:30
62 046 BIANCHI PRATA Pedro TEAM BIANCHI PRATA / VODAFONE HUSQUARNA - TE449 RALLY 19:57:04 05:38:04
63 087 MEILLAT Christophe C.M PROMO KAWASAKI - KLX 450 R 19:59:19 05:40:19
64 061 MATTOS Dimas BRASIL MOTO TOUR KTM - 450 RR 20:16:02 05:57:02
65 148 GOMEZ Mauricio PACO GOMEZ RALLY TEAM YAMAHA - WR 450 20:19:26 06:00:26
66 065 LAZARD Laurent MOTO TEAM BY ELF YAMAHA - WR 450 20:22:35 06:03:35
67 059 CIOTTI Filippo FRANCO PICCO RACING RIEJU - MRT 450 20:26:05 06:07:05
68 029 BERGLUND Thomas HUSABERG RALLY TEAM SCANDINAVIA HUSABERG - FE 450 20:27:14 06:08:14
69 077 PICCO Franco FRANCO PICCO RACING YAMAHA - WRF 450 20:28:06 06:09:06
70 168 GUIRAL DEMIAN AVANT MOTOS HONDA GENUINE OIL HONDA - CRF 450X 20:30:01 06:11:01
71 075 BUSIN Pablo MOTO TEAM BY ELF YAMAHA - 450 WR 20:39:19 06:20:19
72 050 SALVATIERRA Juan Carlos GHR HONDA HONDA - CRF450X 20:41:37 06:22:37
73 100 VESELY Jan CZECH DAKAR TEAM YAMAHA - WR 450F 20:42:29 06:23:29
74 092 HAMARD Stephane REUNION RALLYE RAID KTM - 450 RR 20:45:47 06:26:47
75 165 MULDER GEERT TEAM HONDA EUROPE HONDA - CFR 450 X 20:55:23 06:36:23
76 149 CIPKA DUSAN SLOVAKIA TURBOTEAM ZATKO BMW - G450X 21:07:37 06:48:37
77 068 BARROT David POWERBIKE YAMAHA IPONE YAMAHA - 450 IZF RALLY 21:08:49 06:49:49
78 177 VAN GEEL MARCO TEAM HONDA EUROPE HONDA - CFR 450 X 21:17:26 06:58:26
79 056 MENARD Jean-Christophe HFP YAMAHA - 450 YZF 21:22:35 07:03:35
80 159 CHITTICK Jamie GHR HONDA HONDA - CRF450X 21:25:48 07:06:48
81 098 BLONDEAU CHRISTOPHE TEAM FRANROC YAMAHA - YZF 450 21:41:22 07:22:22
82 172 LUCCHESE MANUEL HUSABERG FACTORY TEAM HUSABERG - FE 450 RALLY 21:41:38 07:22:38
83 164 DEMELCHORI DIEGO TEAM RPM KAWASAKI KAWASAKI - 2009 22:01:06 07:42:06
84 091 TONETTI NICOLA TEAM BOANO HONDA - CRF 450 X 22:10:17 07:51:17
85 072 GOUNON SERGE EMS KTM - 450 RR 22:13:45 07:54:45
86 122 PALANTE Eric WIM MOTORS RACING DIVISION KTM - 450 RR FREVA 22:20:11 08:01:11
87 093 GOMEZ Jorge VEMOTOR CANARIAS Husqvarna - 450cc 22:22:43 08:03:43
88 074 KOFMAN Erik KTM - 450 RR 22:23:11 08:04:11
89 069 PAYEN Hugo YAMAHA - 450 WRF 22:55:11 08:36:11
90 076 PEDERZOLI Claudio ON-OFF RACING TEAM YAMAHA - WR 450 23:18:59 08:59:59
91 170 KREIDL FERDINAND KLS ADVANCE RALLYE RAID TEAM KTM - 450 Replica 23:38:40 09:19:40
92 107 BODINGER Ronnie HUSABERG FACTORY TEAM HUSABERG - FE 450 24:23:45 10:04:45
93 080 PASCUAL Pablo oscar JINCHENG TEAM JINCHENG - JC450Y 24:25:00 10:06:00
94 174 MARTÍNEZ Paco PACO MARTINEZ KAWASAKI - KX450 24:25:51 10:06:51
95 116 GEOFFROY Christophe TB RACING HONDA - F 450 XE 24:32:53 10:13:53
96 131 THEURIOT Herve REVIVAL AVENTURES YAMAHA - 450 WRF 24:43:30 10:24:30
97 150 BELAUSTEGUI Luis FREEDOM RALLY RACING KTM - SX 150 24:47:10 10:28:10
98 176 RAAF Greg MEMO TOURS - ALFIE COX TEAM KTM - 450 Replica 24:55:41 10:36:41
99 102 ALAN Eduardo ELF ARGENTINA Yamaha - WR 450 25:05:58 10:46:58
100 120 ILLANES Rodrigo TARAPACA RALLY TEAM Husqvarna - TE 449 25:08:01 10:49:01
101 106 EMBRO JAMES MEMO TOURS - ALFIE COX TEAM KTM - 450 RALLY 25:12:22 10:53:22
102 099 CHERPIN Pierre KTM - 450 RR 25:38:47 11:19:47
103 073 BONY BRUNO EMS KTM - 450 RR 25:41:54 11:22:54
104 090 DIGUIET Gilles KTM - 450 CC 25:52:59 11:33:59
105 178 VAN WOERKUM JAN TEAM HONDA EUROPE HONDA - CFR 450 X 26:08:25 11:49:25
106 109 BUDWEG ARNDT BRASIL MOTO TOUR KTM - 450 RR 26:14:57 11:55:57
107 158 VELLUTINO Carlo PERUANOS AL DAKAR KTM - 450 EXC 2011 26:29:48 12:10:48
108 151 BEALUSTEGUI Juan Manuel AL LIMITE DAKAR 2012 YAMAHA - WR 450 F 26:39:55 12:20:55
109 095 MAZET Jean-Claude JCM RALLYE RAID KTM - 450 RR 26:44:11 12:25:11
110 136 IGARIS GINTAUTAS YAMAHA - WR450F 26:57:06 12:38:06
111 104 DE BENEDICTIS NETO Vicente Beta - RR 450 27:39:12 13:20:12
112 094 WEI Guanghui JINCHENG TEAM JINCHENG - JC 450Y 27:41:27 13:22:27
113 112 GUYOMARC?H Yannick SCE PERFORMANCE / ASA POMPIERS DE PARIS YAMAHA - WRF 27:45:58 13:26:58
114 085 PENATE MUNOZ Pedro Manuel KH7 VALSEBIKE KTM - 450 28:04:15 13:45:15
115 111 ESPINASSE SYLVAIN SHERCO RALLY RAID - CROCOAVENTURES SHERCO - SR 450 28:57:30 14:38:30
116 125 ASTORI Gianernesto ABC RALLY ACTION TEAM KTM - 450 RR 29:51:17 15:32:17
117 129 DEPOORTER Philippe WIM MOTORS DAKAR KTM - 450 29:57:29 15:38:29
118 152 TER BEEK RONALD GHR HONDA HONDA - CFR 450 X 30:38:15 16:19:15
119 105 BARRON Jacques PERUANOS AL DAKAR KTM - 450 EXL 31:22:27 17:03:27
120 140 REINIKE MARCO MARCO REINIKE KTM - 450 RALLY REPLICA 32:41:22 18:22:22

 

Créer un site gratuit avec e-monsite - Signaler un contenu illicite sur ce site

×